This is the latest recevied weather packets stored in our database for station/object N4AR. If no packets are shown the sender has not sent any weather packets the latest 10 day(s).
| Time | Temp. | Humidity | Pressure | Rain* | Wind** | Luminosity | Snow |
|---|---|---|---|---|---|---|---|
| 1777819094 | 12.78° C | 39% | 1018.6 hPa | 0 mm | - | 649 W/m² | - |
| 1777818790 | 12.78° C | 37% | 1018.5 hPa | 0 mm | - | 634 W/m² | - |
| 1777818486 | 12.78° C | 40% | 1018.6 hPa | 0 mm | - | 621 W/m² | - |
| 1777818183 | 12.78° C | 40% | 1018.5 hPa | 0 mm | - | 606 W/m² | - |
| 1777817880 | 12.78° C | 40% | 1018.4 hPa | 0 mm | - | 589 W/m² | - |
| 1777817578 | 12.78° C | 40% | 1018.6 hPa | 0 mm | - | 572 W/m² | - |
| 1777817274 | 12.78° C | 39% | 1018.5 hPa | 0 mm | - | 558 W/m² | - |
| 1777816971 | 12.78° C | 41% | 1018.4 hPa | 0 mm | - | 541 W/m² | - |
| 1777816667 | 12.78° C | 39% | 1018.4 hPa | 0 mm | - | 524 W/m² | - |
| 1777816364 | 12.78° C | 41% | 1018.5 hPa | 0 mm | - | 509 W/m² | - |
| 1777816062 | 12.22° C | 42% | 1018.5 hPa | 0 mm | - | 491 W/m² | - |
| 1777815759 | 12.22° C | 42% | 1018.3 hPa | 0 mm | - | 473 W/m² | - |
| 1777815457 | 12.22° C | 42% | 1018.3 hPa | 0 mm | - | 455 W/m² | - |
| 1777815154 | 12.22° C | 44% | 1018.2 hPa | 0 mm | - | 438 W/m² | - |
| 1777814851 | 12.22° C | 43% | 1018.3 hPa | 0 mm | - | 420 W/m² | - |
| 1777814546 | 11.67° C | 44% | 1018.2 hPa | 0 mm | - | 402 W/m² | - |
| 1777814244 | 11.67° C | 44% | 1018.2 hPa | 0 mm | - | 382 W/m² | - |
| 1777813941 | 11.67° C | 45% | 1018 hPa | 0 mm | - | 364 W/m² | - |
| 1777813639 | 11.67° C | 47% | 1018.2 hPa | 0 mm | - | 346 W/m² | - |
| 1777813335 | 11.11° C | 47% | 1018.1 hPa | 0 mm | - | 157 W/m² | - |
| 1777813033 | 11.11° C | 47% | 1018.3 hPa | 0 mm | - | 194 W/m² | - |
| 1777812731 | 11.11° C | 47% | 1018.1 hPa | 0 mm | - | 171 W/m² | - |
| 1777812427 | 11.11° C | 50% | 1018.2 hPa | 0 mm | - | 272 W/m² | - |
| 1777812125 | 10.56° C | 50% | 1018 hPa | 0 mm | - | 258 W/m² | - |
| 1777811823 | 10.56° C | 50% | 1018.2 hPa | 0 mm | - | 239 W/m² | - |
* Rain latest hour (hover to see other rain measurements)
** Current wind speed in m/s (hover to see current wind gust speed)